Terug naar catalogus

STARLINK-36737

ActiefCommunicatieSSO
NORAD 67740·PAYLOAD·🇺🇸 United States

Gelanceerd Feb 11, 2026 vanaf Vandenberg Space Force Base

Loading…

Volgende Passages (komende 24 uur)

TLE

VersSource: CelesTrak SupGP

Epoch: Sep 15, 2026, 03:54 UTC

1 67740C 26026V   26258.16298611 -.00042274  00000+0 -13123-2 0  2587
2 67740  97.2838 310.1138 0001012  88.1632 334.6104 15.33461365    11

Volg STARLINK-36737 in realtime met AllMySat

Download on the App Store